Temp
-10 -10 -10 -10 -10 -10 -10 -10 -10 -10 -10 -10 -10 -10 -11 -11 -11 -11 -11 -11 -11 -11 -11 -11 -11 -11 -11 -11 -10 -10 -10 -10 -10 -10 -10 -10 -10 -10 -10 -10 -10 -10 -10
-10 -10 -11 -11 -10 -10 -10 -11 -11 -11 -11 -10 -10 -10 -11 -11 -11 -11 -11 -12 -11 -12 -12 -12 -12 -11 -11 -11 -11 -10 -10 -10 -11 -10 -10 -10 -10 -10 -10 -10 -9 -9 -9
-11 -11 -11 -11 -11 -10 -10 -11 -11 -11 -11 -11 -11 -11 -11 -12 -12 -12 -12 -12 -12 -12 -12 -12 -12 -12 -12 -11 -11 -11 -11 -11 -11 -11 -10 -10 -10 -10 -10 -10 -9 -10 -10
-12 -11 -11 -11 -11 -11 -11 -11 -11 -11 -11 -11 -11 -11 -12 -12 -12 -12 -13 -13 -13 -12 -12 -12 -12 -12 -12 -12 -12 -11 -11 -11 -11 -11 -11 -11 -10 -10 -10 -10 -9 -10 -10
-11 -12 -11 -12 -12 -12 -11 -11 -11 -11 -11 -11 -11 -12 -12 -12 -13 -13 -13 -13 -13 -13 -13 -13 -13 -13 -12 -12 -12 -12 -12 -11 -11 -11 -11 -11 -11 -11 -10 -10 -10 -10 -10
-11 -11 -11 -11 -11 -12 -11 -11 -12 -12 -12 -12 -11 -12 -12 -13 -13 -13 -13 -13 -13 -13 -13 -13 -13 -13 -13 -13 -12 -12 -12 -12 -12 -12 -11 -12 -12 -11 -11 -11 -11 -10 -10
-10 -11 -11 -11 -11 -12 -12 -12 -12 -12 -12 -12 -12 -12 -12 -13 -13 -13 -13 -13 -13 -13 -13 -13 -13 -13 -13 -13 -13 -13 -13 -12 -12 -12 -12 -12 -12 -11 -11 -11 -11 -11 -11
-11 -11 -11 -11 -12 -12 -13 -12 -12 -12 -12 -12 -12 -13 -13 -13 -13 -13 -13 -13 -13 -14 -14 -13 -14 -14 -13 -13 -13 -13 -13 -13 -12 -12 -12 -12 -12 -11 -11 -11 -11 -11 -11
-11 -11 -11 -11 -12 -12 -13 -13 -13 -13 -13 -13 -13 -13 -13 -12 -13 -13 -13 -13 -14 -13 -14 -13 -13 -13 -13 -14 -13 -13 -13 -13 -13 -12 -12 -12 -12 -12 -11 -11 -11 -11 -11
-11 -11 -12 -12 -12 -12 -13 -13 -13 -13 -13 -13 -12 -13 -13 -13 -13 -14 -14 -13 -13 -14 -14 -13 -13 -13 -14 -13 -13 -13 -13 -13 -13 -13 -12 -12 -12 -12 -12 -11 -11 -11 -11
-12 -11 -12 -12 -12 -12 -13 -14 -14 -14 -13 -13 -13 -13 -13 -14 -14 -14 -14 -13 -14 -14 -13 -13 -13 -13 -13 -14 -13 -13 -13 -13 -13 -13 -12 -12 -12 -12 -12 -12 -12 -11 -11
-12 -12 -12 -12 -12 -13 -13 -14 -14 -14 -14 -14 -14 -14 -14 -14 -14 -14 -14 -14 -14 -13 -14 -14 -13 -13 -13 -13 -13 -13 -13 -13 -13 -13 -13 -12 -12 -12 -12 -12 -12 -12 -12
-12 -13 -13 -13 -13 -13 -14 -14 -14 -14 -14 -14 -14 -14 -14 -14 -14 -14 -14 -14 -14 -14 -14 -14 -14 -14 -14 -14 -14 -13 -13 -13 -13 -13 -13 -13 -12 -12 -12 -12 -12 -12 -12
-13 -13 -13 -13 -13 -13 -13 -14 -14 -14 -14 -14 -14 -14 -14 -14 -14 -14 -14 -15 -15 -15 -14 -14 -14 -14 -14 -14 -14 -14 -13 -13 -13 -13 -13 -13 -13 -13 -12 -12 -12 -12 -12
-13 -13 -13 -13 -13 -13 -13 -13 -14 -14 -14 -15 -15 -15 -14 -14 -14 -14 -15 -15 -15 -14 -14 -14 -14 -14 -14 -14 -14 -14 -14 -14 -14 -13 -13 -13 -13 -13 -13 -13 -12 -12 -12
-13 -13 -13 -13 -14 -14 -14 -14 -14 -14 -15 -15 -15 -15 -15 -15 -14 -14 -15 -15 -15 -15 -15 -14 -14 -14 -14 -14 -14 -14 -14 -14 -14 -14 -13 -13 -13 -13 -13 -13 -12 -13 -13
-14 -14 -14 -14 -14 -15 -14 -14 -15 -15 -15 -15 -15 -15 -15 -15 -15 -15 -15 -15 -15 -15 -15 -15 -15 -15 -15 -15 -15 -15 -15 -15 -14 -14 -14 -14 -14 -14 -13 -13 -13 -13 -13
-14 -15 -15 -15 -14 -14 -15 -15 -14 -15 -15 -15 -15 -15 -15 -16 -15 -15 -15 -15 -15 -15 -15 -15 -15 -15 -15 -15 -15 -15 -15 -15 -14 -14 -14 -14 -14 -14 -14 -14 -14 -14 -14
-14 -15 -15 -15 -15 -15 -15 -14 -14 -15 -15 -15 -15 -16 -16 -15 -15 -16 -16 -16 -16 -16 -16 -16 -16 -16 -16 -16 -16 -16 -16 -16 -16 -15 -15 -15 -15 -16 -15 -15 -15 -15 -15
-14 -15 -15 -15 -15 -15 -15 -15 -15 -15 -15 -16 -15 -15 -16 -17 -16 -16 -17 -17 -17 -18 -18 -18 -17 -17 -17 -17 -16 -17 -16 -17 -16 -16 -16 -16 -16 -16 -17 -17 -17 -17 -17
-14 -15 -14 -14 -15 -15 -16 -16 -16 -16 -16 -16 -16 -16 -16 -16 -17 -18 -17 -18 -18 -18 -18 -18 -18 -17 -17 -17 -17 -17 -17 -17 -17 -17 -17 -17 -17 -17 -18 -18 -18 -18 -18
-15 -15 -15 -15 -15 -16 -16 -17 -16 -16 -16 -16 -16 -16 -16 -16 -16 -17 -17 -18 -18 -18 -18 -18 -18 -18 -18 -18 -18 -18 -18 -18 -18 -18 -18 -18 -18 -18 -18 -18 -18 -18 -18
-15 -15 -15 -15 -15 -16 -16 -17 -17 -17 -17 -17 -17 -17 -17 -17 -17 -17 -17 -17 -18 -18 -18 -18 -18 -18 -18 -18 -19 -18 -18 -18 -18 -18 -19 -18 -18 -18 -18 -19 -19 -19 -19
-15 -15 -16 -16 -16 -17 -17 -17 -17 -17 -17 -17 -17 -17 -17 -18 -18 -18 -18 -18 -18 -18 -18 -18 -18 -19 -19 -19 -19 -19 -19 -19 -19 -19 -19 -19 -19 -19 -19 -19 -19 -19 -19
-15 -15 -16 -16 -17 -17 -17 -17 -17 -17 -17 -18 -17 -17 -17 -18 -18 -18 -18 -19 -19 -19 -19 -19 -19 -19 -19 -19 -19 -19 -19 -19 -19 -19 -19 -19 -19 -19 -19 -19 -20 -20 -20
-16 -16 -17 -17 -17 -17 -18 -18 -18 -18 -17 -18 -18 -18 -18 -18 -18 -19 -19 -19 -19 -19 -19 -19 -19 -19 -19 -20 -20 -20 -20 -20 -20 -20 -20 -20 -20 -20 -20 -20 -21 -21 -21
Height
5839 5839 5838 5837 5839 5838 5839 5839 5840 5841 5841 5841 5841 5841 5842 5842 5842 5842 5841 5841 5841 5841 5841 5841 5840 5839 5839 5838 5836 5836 5836 5834 5833 5834 5833 5832 5832 5833 5833 5832 5833 5833 5833
5835 5835 5835 5835 5835 5835 5835 5836 5836 5836 5837 5837 5838 5838 5838 5838 5838 5838 5838 5838 5838 5838 5838 5837 5836 5835 5834 5834 5833 5833 5832 5831 5831 5831 5831 5830 5829 5830 5830 5829 5830 5830 5830
5831 5832 5832 5832 5831 5831 5831 5832 5833 5833 5833 5834 5834 5835 5834 5834 5834 5834 5834 5835 5835 5835 5834 5833 5832 5831 5830 5830 5829 5829 5829 5828 5827 5827 5827 5826 5826 5826 5826 5826 5827 5827 5828
5826 5827 5827 5827 5827 5827 5827 5828 5828 5829 5829 5829 5829 5830 5830 5830 5830 5831 5831 5831 5831 5830 5829 5829 5828 5827 5826 5826 5825 5825 5824 5824 5824 5823 5824 5823 5822 5822 5823 5823 5824 5824 5825
5821 5822 5822 5823 5823 5823 5823 5823 5823 5824 5825 5825 5825 5825 5825 5826 5826 5827 5827 5826 5826 5825 5825 5825 5824 5824 5822 5822 5822 5821 5820 5820 5820 5820 5820 5819 5819 5819 5819 5820 5821 5822 5822
5815 5816 5816 5816 5816 5816 5817 5818 5818 5818 5819 5819 5819 5820 5821 5822 5822 5822 5822 5821 5821 5820 5820 5820 5820 5819 5818 5818 5818 5817 5817 5816 5817 5817 5817 5816 5815 5815 5816 5817 5817 5817 5818
5810 5809 5809 5809 5808 5809 5810 5811 5811 5812 5813 5814 5814 5815 5816 5816 5816 5816 5816 5816 5816 5815 5814 5814 5814 5815 5814 5813 5814 5814 5813 5812 5813 5813 5813 5814 5813 5812 5813 5813 5814 5814 5815
5804 5803 5803 5803 5802 5802 5804 5804 5805 5806 5807 5808 5809 5810 5810 5810 5810 5809 5810 5811 5810 5809 5807 5807 5808 5808 5810 5808 5809 5810 5810 5809 5809 5809 5809 5809 5809 5808 5808 5808 5810 5810 5811
5798 5798 5798 5798 5798 5798 5798 5799 5799 5800 5801 5802 5803 5803 5803 5802 5801 5802 5806 5805 5804 5801 5800 5800 5800 5801 5803 5803 5803 5805 5805 5805 5804 5804 5804 5804 5804 5804 5804 5804 5805 5805 5805
5794 5793 5793 5793 5792 5793 5793 5794 5794 5795 5796 5796 5796 5793 5792 5794 5798 5801 5800 5799 5797 5795 5794 5792 5794 5796 5797 5797 5798 5800 5801 5800 5799 5799 5799 5798 5799 5799 5799 5799 5799 5800 5800
5789 5788 5787 5786 5786 5786 5787 5788 5790 5791 5791 5790 5788 5789 5793 5794 5794 5794 5794 5793 5792 5790 5787 5785 5786 5788 5791 5792 5793 5794 5795 5795 5794 5793 5793 5793 5793 5794 5794 5794 5794 5794 5794
5781 5780 5780 5781 5781 5781 5782 5783 5784 5784 5785 5785 5786 5787 5788 5788 5788 5788 5788 5786 5783 5783 5783 5782 5782 5784 5785 5787 5788 5788 5788 5788 5788 5788 5787 5787 5787 5787 5787 5787 5787 5788 5788
5776 5775 5775 5775 5775 5775 5775 5777 5778 5778 5778 5779 5779 5780 5781 5781 5781 5781 5780 5778 5777 5777 5778 5778 5778 5778 5779 5780 5781 5781 5781 5781 5781 5781 5781 5780 5780 5780 5781 5781 5781 5780 5780
5770 5770 5768 5768 5768 5769 5770 5769 5770 5772 5772 5772 5773 5773 5773 5773 5773 5772 5770 5771 5770 5771 5771 5772 5771 5772 5772 5772 5773 5773 5773 5774 5774 5774 5774 5773 5773 5772 5772 5772 5773 5773 5772
5762 5762 5762 5762 5761 5762 5762 5763 5763 5763 5764 5764 5765 5765 5765 5765 5765 5764 5763 5763 5763 5763 5764 5764 5764 5764 5764 5764 5765 5765 5765 5765 5764 5764 5763 5763 5763 5763 5762 5763 5763 5763 5763
5754 5754 5754 5754 5755 5755 5756 5756 5756 5756 5755 5756 5756 5756 5756 5756 5756 5756 5756 5756 5756 5756 5756 5756 5756 5755 5755 5755 5756 5756 5756 5756 5756 5755 5754 5753 5752 5752 5752 5752 5752 5751 5751
5744 5744 5746 5745 5744 5744 5745 5746 5746 5745 5745 5746 5745 5746 5746 5747 5747 5747 5747 5747 5748 5748 5748 5748 5748 5748 5747 5747 5746 5746 5746 5746 5745 5744 5743 5742 5741 5740 5739 5739 5739 5739 5739
5737 5736 5736 5736 5736 5735 5735 5735 5736 5736 5735 5736 5736 5737 5737 5737 5737 5737 5737 5738 5738 5738 5738 5739 5740 5739 5739 5738 5738 5737 5736 5735 5734 5733 5733 5732 5731 5730 5729 5728 5727 5726 5726
5729 5729 5729 5728 5726 5725 5724 5723 5724 5724 5725 5725 5726 5727 5727 5727 5727 5728 5728 5728 5728 5728 5728 5729 5730 5729 5729 5728 5727 5726 5725 5725 5724 5723 5722 5722 5720 5719 5717 5716 5715 5714 5714
5719 5719 5719 5718 5716 5714 5713 5712 5712 5712 5713 5715 5714 5714 5715 5716 5717 5717 5718 5718 5718 5718 5718 5719 5720 5719 5719 5718 5717 5717 5717 5715 5714 5713 5712 5710 5708 5707 5704 5703 5702 5701 5701
5712 5710 5710 5707 5704 5703 5703 5701 5701 5701 5702 5702 5704 5705 5704 5705 5704 5705 5706 5708 5708 5708 5708 5708 5708 5708 5709 5709 5709 5708 5707 5705 5704 5702 5701 5699 5697 5695 5693 5691 5690 5689 5688
5702 5702 5701 5698 5695 5693 5693 5692 5691 5691 5691 5692 5692 5693 5694 5694 5694 5695 5695 5696 5696 5696 5697 5698 5700 5701 5700 5700 5699 5697 5696 5696 5693 5692 5690 5688 5686 5683 5681 5680 5678 5677 5675
5691 5691 5690 5689 5685 5683 5683 5683 5681 5681 5682 5683 5683 5684 5684 5685 5685 5685 5686 5687 5688 5688 5689 5690 5690 5690 5690 5689 5687 5687 5685 5685 5683 5681 5679 5677 5675 5672 5670 5669 5667 5665 5663
5677 5677 5677 5676 5674 5673 5673 5672 5671 5671 5672 5673 5673 5673 5674 5674 5674 5675 5676 5677 5678 5678 5678 5679 5679 5678 5678 5678 5678 5677 5676 5674 5672 5671 5668 5665 5663 5662 5660 5657 5655 5653 5651
5664 5665 5664 5661 5661 5660 5660 5660 5659 5660 5661 5663 5663 5663 5662 5663 5664 5664 5665 5666 5666 5667 5667 5667 5668 5668 5668 5668 5667 5666 5665 5663 5662 5660 5658 5656 5653 5652 5650 5648 5646 5644 5642
5651 5650 5650 5648 5648 5648 5646 5646 5647 5648 5649 5650 5652 5652 5653 5654 5655 5657 5658 5658 5658 5659 5659 5659 5658 5658 5658 5657 5657 5656 5654 5653 5651 5650 5648 5646 5644 5642 5641 5639 5638 5636 5635
Wind_Speed
20 19 19 20 22 27 26 26 26 23 24 24 24 22 21 19 19 18 19 18 19 20 21 22 24 25 27 28 28 28 27 24 22 20 18 17 17 17 18 17 16 15 13
21 20 19 22 27 29 27 23 22 24 27 26 26 25 24 23 22 21 22 21 20 21 22 23 24 26 28 28 29 30 27 24 23 21 21 20 19 20 19 16 13 13 13
22 24 24 26 26 26 27 28 27 28 29 28 28 27 26 26 25 25 25 24 24 24 24 25 25 26 27 29 29 30 28 26 23 20 21 20 18 17 16 15 12 12 13
23 25 26 24 24 26 28 32 33 32 30 32 30 29 28 29 28 27 27 27 28 28 27 28 28 26 26 28 29 31 30 27 22 18 18 17 15 16 15 13 12 11 12
30 32 33 34 36 38 37 36 35 35 35 33 32 33 32 32 31 29 29 31 31 31 30 31 31 28 24 26 27 31 29 26 22 16 15 14 13 14 13 11 11 12 12
35 36 39 43 44 45 45 43 39 39 37 35 36 35 34 33 32 31 32 33 35 35 35 34 34 25 23 24 26 27 27 24 19 14 13 12 15 15 14 10 12 13 15
30 31 32 36 38 41 41 42 36 36 36 36 36 35 34 33 33 32 33 35 37 39 41 39 37 36 24 23 26 26 26 24 21 16 15 13 14 16 16 15 14 14 16
25 26 27 27 28 27 29 29 34 37 36 33 33 33 33 33 32 33 35 36 39 42 44 41 41 45 32 24 25 25 25 24 22 19 18 16 16 18 19 18 18 17 18
20 23 25 25 26 25 25 26 30 29 28 28 28 29 30 34 41 27 35 38 40 46 43 45 46 30 25 25 25 25 24 23 23 22 21 20 20 19 20 20 20 21 21
24 22 23 23 25 22 23 23 23 22 23 24 33 40 29 27 31 37 38 36 41 43 43 31 33 25 27 26 26 26 25 24 25 24 23 22 22 22 22 22 23 23 25
25 25 24 25 24 24 22 21 22 24 27 30 31 29 33 34 37 38 36 37 40 40 25 16 29 23 30 28 28 27 26 25 26 25 24 25 24 25 25 25 26 27 28
26 26 25 25 25 25 25 25 25 27 29 31 33 34 36 36 36 38 39 37 41 36 26 25 24 27 29 30 30 28 28 27 28 27 27 28 27 27 28 29 31 31 32
30 28 27 26 26 26 27 30 32 33 35 36 36 35 36 38 40 40 39 37 37 35 30 29 31 32 30 32 31 30 30 31 31 31 30 31 31 31 31 32 33 34 36
31 32 31 28 29 30 30 30 33 36 38 38 40 40 41 40 41 39 37 35 37 36 35 34 35 35 34 33 33 33 33 34 34 34 34 33 34 34 35 35 35 36 38
33 34 35 33 31 31 32 33 34 36 38 39 40 41 42 43 43 41 39 38 39 38 38 37 37 36 35 35 36 36 36 37 38 37 36 37 37 37 38 38 39 39 40
31 34 35 35 35 34 35 35 36 37 39 39 40 41 43 42 42 41 39 39 38 39 39 39 37 36 37 38 38 39 40 41 41 40 40 40 41 41 42 43 44 45 45
28 30 29 32 32 36 40 41 41 41 45 45 44 45 39 40 42 42 40 39 40 40 39 38 38 39 39 39 40 42 43 44 44 44 44 45 45 45 46 45 46 47 48
27 27 29 30 34 34 35 37 40 43 44 42 39 40 41 43 40 37 38 38 39 39 40 40 40 41 41 42 43 45 47 47 47 48 48 49 48 47 46 46 48 49 49
37 33 31 32 32 35 37 37 36 40 45 46 44 43 42 42 43 44 45 45 46 41 40 41 43 43 44 45 47 49 49 50 50 51 51 49 48 48 46 46 46 47 49
37 34 34 37 37 38 38 38 38 36 41 47 46 47 45 41 41 41 43 44 43 42 42 43 44 45 48 49 50 51 51 50 51 51 50 49 45 43 42 43 44 46 48
39 37 37 37 41 43 38 40 39 40 40 44 47 46 45 47 48 47 50 50 49 48 48 49 50 52 51 51 50 51 50 49 50 49 46 43 42 42 42 43 44 46 48
34 28 29 34 38 43 40 37 39 40 42 42 45 42 43 45 42 42 42 43 45 46 47 48 49 49 48 49 47 45 47 49 48 44 42 40 40 40 40 41 42 43 45
34 35 37 38 38 39 38 36 39 37 39 41 38 43 45 45 42 42 46 48 47 47 47 47 46 45 44 42 43 46 47 46 44 41 39 39 39 39 40 40 41 42 43
46 42 39 40 43 41 39 40 44 41 39 39 39 39 43 41 39 38 36 35 37 37 38 39 38 38 39 43 45 44 43 41 39 38 38 37 37 38 38 40 41 42 41
47 48 44 46 45 41 43 45 46 43 39 38 31 31 35 37 37 37 39 38 37 38 36 37 39 41 41 41 41 41 40 38 37 36 35 37 38 39 40 41 41 38 37
53 48 43 46 49 45 48 48 50 48 42 41 34 30 31 34 35 35 36 37 38 39 39 38 37 38 40 39 38 37 36 36 35 36 37 38 39 40 41 38 34 34 33
Wind_Direction
277 283 285 287 294 303 303 300 292 292 295 293 293 292 293 294 297 297 301 307 306 306 307 301 297 291 288 290 293 297 295 288 281 277 270 268 272 272 271 277 283 282 281
274 286 285 284 292 295 298 298 287 291 294 289 285 286 287 290 292 292 295 300 299 304 302 304 295 289 291 291 291 291 294 286 278 271 270 266 265 263 263 266 270 273 277
277 277 280 283 288 289 291 292 288 287 290 283 279 281 281 283 285 288 290 293 295 298 297 300 303 294 288 289 290 291 292 287 281 273 268 263 259 256 259 263 265 271 279
268 276 281 282 280 284 290 291 288 283 283 282 276 273 273 274 278 281 287 290 293 297 301 300 302 296 291 290 290 292 294 290 283 276 268 266 265 261 260 264 265 270 274
264 268 270 274 278 280 280 286 282 277 276 277 271 268 266 269 274 278 286 287 292 295 297 297 298 290 287 290 290 291 292 291 284 278 263 264 270 268 267 266 275 276 272
276 275 274 273 274 275 276 277 277 272 271 270 270 263 265 269 275 281 285 287 291 293 293 292 291 284 282 282 283 286 288 284 281 275 261 258 267 270 274 271 263 263 262
282 280 276 274 272 268 272 274 268 273 274 271 270 261 265 269 273 276 280 282 289 288 286 287 284 287 276 276 279 282 283 280 278 269 266 265 269 276 279 281 275 271 269
287 289 287 277 272 262 263 261 264 267 270 268 261 260 262 264 268 268 275 281 285 284 283 277 288 283 270 269 276 278 280 277 276 275 273 268 265 270 275 276 277 278 277
287 290 290 285 274 265 260 259 260 263 264 261 256 257 258 256 259 277 277 281 282 283 281 281 282 261 256 265 272 274 274 275 275 274 274 275 272 270 273 278 281 283 282
286 286 284 284 280 266 258 254 256 260 260 257 256 247 256 283 274 273 274 279 280 283 283 277 265 260 260 261 269 271 271 272 272 270 271 273 274 274 273 274 278 279 280
279 283 287 284 282 275 264 256 253 254 258 260 271 272 265 266 267 269 272 277 278 275 273 271 245 256 258 261 270 271 270 270 269 270 271 271 272 273 273 275 274 277 280
280 277 273 280 281 275 267 260 257 258 257 259 262 263 266 268 268 269 273 274 271 276 275 282 274 265 263 268 269 269 269 269 269 269 268 268 268 269 272 275 277 278 278
285 282 278 274 277 273 267 265 260 258 258 260 264 264 264 264 266 270 271 268 268 272 271 267 270 266 265 266 267 269 269 270 268 267 267 269 272 274 275 276 277 279 279
282 280 281 275 274 275 270 263 263 264 263 263 264 264 265 266 269 270 265 265 267 267 268 266 265 266 269 268 269 269 269 269 268 266 267 271 274 276 277 277 278 279 278
277 273 273 274 271 269 269 270 265 265 265 266 265 265 266 269 271 271 272 264 263 263 265 265 264 265 266 267 269 271 272 271 270 270 273 275 277 279 280 281 280 279 278
275 274 271 272 273 275 274 269 267 265 265 266 266 267 267 267 268 268 268 265 265 265 263 263 264 265 265 267 269 270 270 270 271 274 277 280 280 280 282 283 283 282 280
271 272 271 264 265 268 270 268 263 260 263 265 264 256 265 267 267 267 266 266 267 266 265 264 265 267 269 271 271 273 275 276 278 281 283 283 283 284 285 285 285 283 280
263 265 262 267 270 271 269 269 271 273 268 269 267 267 265 265 265 266 265 264 264 264 264 264 265 267 268 269 271 273 275 278 280 281 282 283 283 283 283 283 283 282 279
261 269 269 267 264 262 265 267 268 268 270 267 261 258 259 260 260 261 261 263 260 258 261 262 265 268 270 271 272 273 275 278 280 282 283 282 282 283 283 283 283 282 280
269 271 271 273 275 269 266 265 263 266 266 268 266 265 257 256 257 257 258 256 259 263 263 263 264 266 267 267 269 273 277 281 285 285 286 287 287 287 287 286 285 284 281
274 280 279 278 280 277 274 273 265 262 266 264 268 268 261 256 251 250 251 253 252 251 254 257 258 260 265 270 274 276 280 284 286 288 288 288 289 290 290 290 288 286 284
282 277 274 274 278 279 277 273 270 264 265 266 267 269 269 265 261 262 261 260 260 260 261 264 268 271 273 274 277 283 285 286 286 289 290 290 290 290 289 288 287 285 283
277 277 274 270 267 271 277 272 268 266 260 262 270 270 270 268 272 274 267 267 270 270 269 269 270 271 274 281 284 285 286 286 287 289 289 289 290 291 290 289 288 287 287
275 273 264 267 264 269 269 267 266 263 264 263 264 264 264 266 273 273 271 272 274 276 274 274 277 280 282 282 283 282 283 285 287 289 291 292 292 292 292 291 290 289 288
270 276 275 269 265 267 268 262 262 264 259 254 259 267 270 272 274 278 280 282 282 282 282 280 281 281 280 278 279 282 283 287 289 291 292 292 293 293 291 289 287 284 283
276 275 267 262 260 261 263 262 261 264 262 250 257 266 264 264 268 270 273 275 278 279 279 279 277 277 276 277 279 281 285 288 290 292 293 292 290 289 287 284 280 283 283